This is the latest recevied weather packets stored in our database for station/object SV1BYK-2. If no packets are shown the sender has not sent any weather packets the latest 10 day(s).
| Time | Temp. | Humidity | Pressure | Rain* | Wind** | Luminosity | Snow |
|---|---|---|---|---|---|---|---|
| 1778158576 | 22.78° C | 45% | 1011.7 hPa | 0 mm | - | 0 W/m² | - |
| 1778157904 | 22.22° C | 46% | 1011.8 hPa | 0 mm | - | 0 W/m² | - |
| 1778157364 | 22.22° C | 45% | 1012 hPa | 0 mm | - | 0 W/m² | - |
| 1778156953 | 22.78° C | 46% | 1011.9 hPa | 0 mm | - | 0 W/m² | - |
| 1778156284 | 22.78° C | 45% | 1012.1 hPa | 0 mm | - | 0 W/m² | - |
| 1778155878 | 23.33° C | 42% | 1012 hPa | 0 mm | - | 0 W/m² | - |
| 1778155204 | 22.78° C | 48% | 1012 hPa | 0 mm | - | 0 W/m² | - |
| 1778154977 | 23.33° C | 51% | 1011.9 hPa | 0 mm | - | 0 W/m² | - |
| 1778154304 | 23.33° C | 53% | 1012.1 hPa | 0 mm | - | 0 W/m² | - |
| 1778153896 | 23.33° C | 52% | 1012.2 hPa | 0 mm | - | 0 W/m² | - |
| 1778153223 | 22.78° C | 50% | 1012.3 hPa | 0 mm | - | 0 W/m² | - |
| 1778152684 | 22.78° C | 49% | 1012.5 hPa | 0 mm | - | 0 W/m² | - |
| 1778152273 | 22.78° C | 50% | 1012.5 hPa | 0 mm | - | 0 W/m² | - |
| 1778151604 | 22.22° C | 52% | 1012.3 hPa | 0 mm | - | 0 W/m² | - |
| 1778151244 | 22.78° C | 50% | 1012.2 hPa | 0 mm | - | 0 W/m² | - |
| 1778150834 | 22.22° C | 53% | 1012.2 hPa | 0 mm | - | 0 W/m² | - |
| 1778150297 | 22.78° C | 58% | 1012.3 hPa | 0 mm | - | 0 W/m² | - |
| 1778149754 | 22.78° C | 58% | 1012 hPa | 0 mm | - | 0 W/m² | - |
| 1778149084 | 23.33° C | 60% | 1011.7 hPa | 0 mm | - | 0 W/m² | - |
| 1778148674 | 23.33° C | 60% | 1011.9 hPa | 0 mm | - | 0 W/m² | - |
| 1778148004 | 23.33° C | 56% | 1011.9 hPa | 0 mm | - | 0 W/m² | - |
| 1778147644 | 22.78° C | 59% | 1012 hPa | 0 mm | - | 0 W/m² | - |
| 1778147235 | 23.33° C | 54% | 1011.9 hPa | 0 mm | - | 0 W/m² | - |
| 1778146563 | 23.33° C | 54% | 1012 hPa | 0 mm | - | 0 W/m² | - |
| 1778146023 | 23.33° C | 51% | 1012.1 hPa | 0 mm | - | 0 W/m² | - |
* Rain latest hour (hover to see other rain measurements)
** Current wind speed in m/s (hover to see current wind gust speed)